Regional Weather Roundup
Issued by NWS Glasgow, MT

Home | Current Version | Previous Version | Text Only | Print | Product List | Glossary On
Versions: 1 2 3 4 5 6 7 8 9 10 11 12 13 14 15 16 17 18 19 20 21 22 23 24 25 26 27 28 29 30 31 32 33 34 35 36 37 38 39 40 41 42 43 44 45 46 47 48 49 50
000
ASUS45 KGGW 260215
RWRGGW
HOURLY WEATHER ROUNDUP FOR NORTHEAST MONTANA
NATIONAL WEATHER SERVICE GLASGOW MONTANA
800 PM MDT MON MAY 25 2015

NOTE: "FAIR" INDICATES FEW OR NO CLOUDS BELOW 12,000 FEET WITH NO
SIGNIFICANT WEATHER AND/OR OBSTRUCTIONS TO VISISBILITY.

NORTHEAST MONTANA


CITY           SKY/WX    TMP DP  RH WIND       PRES   REMARKS
GLASGOW        CLEAR     70  45  40 SE10      29.84S
WOLF POINT     PTCLDY    71  46  40 MISG      29.87R
JORDAN           N/A     63  51  65 SE8       29.86S
WINNETT          N/A     68  45  43 SE5         N/A
SIDNEY         CLOUDY    61  48  63 N13       29.90R
GLENDIVE       MOCLDY    63  48  59 SE5       29.90S
MALTA            N/A     74  46  36 SE5         N/A
SCOBEY           N/A     68  43  40 SE5       29.88R

FORT PECK REPORTS


CITY           SKY/WX    TMP DP  RH WIND       PRES   REMARKS
FORT PECK        N/A     64  49  57 SE15G24     N/A
THE PINES        N/A     69  45  41 S8G20       N/A

SOUTHEAST MONTANA


CITY           SKY/WX    TMP DP  RH WIND       PRES   REMARKS
BILLINGS       PTCLDY    65  43  44 SE12      29.88S
MILES CITY     CLOUDY    64  50  60 CALM      29.88S
BAKER          PTCLDY    59  51  75 S12       29.92S
LIVINGSTON     PTCLDY    64  41  42 E12       29.86R

CENTRAL MONTANA


CITY           SKY/WX    TMP DP  RH WIND       PRES   REMARKS
HAVRE          CLEAR     71  37  28 E9        29.81R
LEWISTOWN      PTCLDY    65  46  50 MISG      29.87S
GREAT FALLS    MOCLDY    67  44  43 E8        29.83R
CUT BANK       LGT RAIN  53  48  83 W20       29.88R
HELENA         CLOUDY    64  45  49 SW10      29.86R
BUTTE          MOCLDY    57  41  55 N8        29.93R
BOZEMAN        PTCLDY    63  40  42 CALM      29.84S

WESTERN MONTANA


CITY           SKY/WX    TMP DP  RH WIND       PRES   REMARKS
MISSOULA       CLOUDY    56  46  69 N9        29.94R
KALISPELL      NOT AVBL

NORTH DAKOTA


CITY           SKY/WX    TMP DP  RH WIND       PRES   REMARKS
WILLISTON      PTCLDY    63  50  62 SW10      29.87S
DICKINSON      PTCLDY    57  47  69 SW8       29.88S
MINOT          PTCLDY    69  46  43 S7        29.80S
BISMARCK       MOCLDY    65  56  72 W10       29.85S

SOUTHERN SASKATCHEWAN


CITY           SKY/WX    TMP DP  RH WIND       PRES   REMARKS
REGINA         MOCLDY    75  39  27 W12       29.82S
ESTEVAN        MOCLDY    70  45  40 N5        29.83S
SWIFT CURRENT  MOCLDY    72  36  26 SE6       29.85R




USA.gov is the U.S. government's official web portal to all federal, state and local government web resources and services.